weather.gov     
National Weather Service

Regional Weather Roundup
NWS Homepage
This page is being discontinued on March 12, 2014.
The same data is available at this site. Please update your bookmarks.
Thank you, and we apologize for the inconvenience.
Please send an email to SR-SRH.Webmaster@noaa.gov with any concerns.


Current Version
Previous Version:    01  02  03  04  05  06  07  08  09  10  11  12  13  14  15  16  17  18  19  20  21  22  23  24  25  26  
[Printable]
704
ASUS44 KMOB 241410
RWRMOB
REGIONAL WEATHER ROUNDUP
NATIONAL WEATHER SERVICE MOBILE AL
900 AM CDT THU APR 24 2014

NOTE: "FAIR" INDICATES FEW OR NO CLOUDS BELOW 12,000 FEET WITH NO
      SIGNIFICANT WEATHER AND/OR OBSTRUCTIONS TO VISIBILITY.

  * THESE STATIONS ARE PART OF THE UNIVERSITY OF SOUTH ALABAMA
    MESONET AND ARE NOT UNDER NWS OR FAA QUALITY CONTROL.

ALZ061>064-241500-
COASTAL ALABAMA

CITY           SKY/WX    TMP DP  RH WIND       PRES   REMARKS
MOBILE REG APT CLOUDY    67  67 100 S3        30.00R FOG
BROOKLEY FIELD CLOUDY    70  68  93 E5        30.00R FOG
USA CAMPUS*      N/A     66  64  94 CALM      29.98
DOG RIVER*     NOT AVBL


CITY           SKY/WX    TMP DP  RH WIND       PRES   REMARKS
MOUNT VERNON*  NOT AVBL
SARALAND*      NOT AVBL
BAY MINETTE*   NOT AVBL
LOXLEY*        NOT AVBL
ROBERTSDALE*     N/A    N/A N/A N/A CALM      30.01R
FAIRHOPE*      NOT AVBL
ELBERTA*       NOT AVBL
FOLEY*         NOT AVBL
GRAND BAY*       N/A     70  70 100 CALM      29.97R
DAUPHIN ISLND* NOT AVBL
BON SCOUR NWR* NOT AVBL
GULF SHORES    PTSUNNY   69  66  90 CALM      29.98R

$$

ALZ051>060-241500-
INTERIOR SOUTHWEST AND SOUTH CENTRAL ALABAMA

CITY           SKY/WX    TMP DP  RH WIND       PRES   REMARKS
GREENVILLE     MOSUNNY   70  52  52 SE7       29.99
EVERGREEN      SUNNY     70  63  78 CALM      30.00R
CASTLEBERRY*   NOT AVBL
ATMORE*          N/A     66  66 100 CALM      30.01R
DIXIE*         NOT AVBL
ANDALUSIA/OPP  SUNNY     76  65  68 CALM      29.99S
ANDALUSIA*     NOT AVBL
FLORALA APT    SUNNY     72  65  78 CALM      30.00F
FLORALA*         N/A     68  64  88 CALM      29.97F

$$

FLZ001>006-241500-
WESTERN FLORIDA PANHANDLE

CITY           SKY/WX    TMP DP  RH WIND       PRES   REMARKS
PENSACOLA      MOSUNNY   72  64  76 SE5       29.98S
NAS PENSACOLA  MOSUNNY   71  66  84 S3        29.98R
MILTON         PTSUNNY   66  64  93 SE3       29.99S
WHTNG S FIELD  PTSUNNY   70  67  90 CALM      29.99R


CITY           SKY/WX    TMP DP  RH WIND       PRES   REMARKS
WALNUT HILL*   NOT AVBL
JAY*           NOT AVBL
DUKE FIELD     CLOUDY    65  65 100 S3        30.00R FOG
CRESTVIEW      CLOUDY    66  65  96 S3        30.01R FOG
VALPARAISO     MOSUNNY   70  70 100 E2        29.99S
DESTIN         SUNNY     72  65  78 S5        29.99S

$$

MSZ076-079-241500-
INTERIOR SOUTHEAST MISSISSIPPI

CITY           SKY/WX    TMP DP  RH WIND       PRES   REMARKS
LEAKESVILLE*     N/A     63  63 100 CALM      29.98
AGRICOLA*      NOT AVBL

$$

MARINE OBSERVATIONS

STATION/POSITION TIME  TEMP    WIND        PRES    WAVE
                       AIR SEA DIR/SP/G            HT/PER
                 (UTC) (F)     (DEG/KT/KT) (MB)    (FT/S)
PASCAGOULA       1400   72     150/  2/  3 1014.8S
PETIT BOIS ISLND 1400   72     170/  4/  4 1015.3R
GRAND BAY        1300   70        CALM     1016.0R
KATRINA CUT      1300   70     200/  6     1015.9R
CEDAR POINT      1300   70     180/  5     1014.9S
E DAUPHIN ISLAND 1400   69     150/  4/  5 1014.9R
MIDDLE BAY LIGHT 1300   69     180/  6     1014.6R
USCG MOBILE BAY  1400   69 68  160/  2/  3 1014.5R
STATE DOCKS      1400   67 66              1015.2R
MEAHER PARK      1300   67        CALM     1015.6R
WEEKS BAY        1300   52                   N/A
FORT MORGAN      1400   70     200/  3/  4 1015.0R
12 S ORANGE BCH  1400   70 71  160/  2/  4 1015.6R   1
PENSACOLA BAY    1400   73 70  160/  3/  4 1015.5S
64 S DAUPHIN ISL 1344   70 72  190/  4/  4 1015.6R
67 S FORT MORGAN 1300   68                 1014.6S

$$

SELECTED LOCATIONS ACROSS THE REGION

CITY           SKY/WX    TMP DP  RH WIND       PRES   REMARKS
NEW ORLEANS    MOSUNNY   71  68  90 VRB3      29.97R
GULFPORT       PTSUNNY   75  65  70 S5        29.98R
PASCAGOULA AP  MOSUNNY   71  67  87 CALM      29.98S
PASCAGOULA*      N/A     68  68 100 CALM      29.98R
HATTIESBURG    SUNNY     69  62  78 CALM      29.99R
LAUREL         SUNNY     68  61  77 CALM      29.99S
MERIDIAN       PTSUNNY   65  54  67 CALM      29.97S
JACKSON        MOSUNNY   70  58  65 CALM      29.96R
MONTGOMERY     CLOUDY    67  47  48 E7        30.00S
TROY           MOSUNNY   70  48  45 SE5       30.00S
KINSTON*       NOT AVBL
GENEVA*          N/A     72  64  78 CALM      30.02
ASHFORD*       NOT AVBL
DOTHAN         CLOUDY    70  50  49 E7        30.04S
PANAMA CITY    CLOUDY    67  65  93 CALM      30.01R FOG

$$





U.S. Dept. of Commerce
NOAA National Weather Service
1325 East West Highway
Silver Spring, MD 20910
E-mail: w-nws.webmaster@noaa.gov
Page last modified: May 16, 2007
NATIONAL WEATHER SERVICE: for Safety, for Work, for Fun - FOR LIFE